contact:dominique.lefevre@mio.osupytheas.fr, maurice.libes@osupytheas.fr, didier.mallarino@osupytheas.fr
Project:EMSO http://www.emso-fr.org/EMSO-France
Depth: 2436.0 m
Title:EMSO Ligure Ouest : Data MII capteur MICROCAT
DateTime_Computer,Latitude,Longitude,Temperature,Conductivity,Pressure,DateTime_Instrument
DateTime_Computer,Latitude,Longitude,degC,S m-1,dbar,DateTime_Instrument
2022-01-28T00:01:28Z,42.805,6.029,13.3016,4.60097,2470.147,2022-1-28T02:03:00Z
2022-01-28T00:04:31Z,42.805,6.029,13.3029,4.60099,2470.11,2022-1-28T02:06:03Z
2022-01-28T00:07:34Z,42.805,6.029,13.3008,4.60098,2470.087,2022-1-28T02:09:06Z
2022-01-28T00:10:37Z,42.805,6.029,13.3035,4.60097,2470.1,2022-1-28T02:12:09Z
2022-01-28T00:13:40Z,42.805,6.029,13.3030,4.60082,2470.133,2022-1-28T02:15:12Z
2022-01-28T00:16:43Z,42.805,6.029,13.3017,4.60062,2470.11,2022-1-28T02:18:15Z
2022-01-28T00:19:47Z,42.805,6.029,13.3021,4.60072,2470.124,2022-1-28T02:21:19Z
2022-01-28T00:22:50Z,42.805,6.029,13.3016,4.60103,2470.11,2022-1-28T02:24:22Z
2022-01-28T00:25:53Z,42.805,6.029,13.3007,4.60075,2470.11,2022-1-28T02:27:25Z
2022-01-28T00:28:56Z,42.805,6.029,13.3009,4.60085,2470.133,2022-1-28T02:30:28Z
2022-01-28T00:31:59Z,42.805,6.029,13.3011,4.60112,2470.11,2022-1-28T02:33:31Z
2022-01-28T00:35:02Z,42.805,6.029,13.3003,4.60092,2470.133,2022-1-28T02:36:34Z
2022-01-28T00:38:05Z,42.805,6.029,13.3029,4.60096,2470.087,2022-1-28T02:39:37Z
2022-01-28T00:41:08Z,42.805,6.029,13.3017,4.60127,2470.133,2022-1-28T02:42:40Z
2022-01-28T00:44:12Z,42.805,6.029,13.3026,4.60081,2470.11,2022-1-28T02:45:44Z
2022-01-28T00:47:15Z,42.805,6.029,13.3019,4.60092,2470.147,2022-1-28T02:48:47Z
2022-01-28T00:50:18Z,42.805,6.029,13.3009,4.60101,2470.194,2022-1-28T02:51:50Z
2022-01-28T00:53:21Z,42.805,6.029,13.3010,4.60054,2470.133,2022-1-28T02:54:53Z
2022-01-28T00:56:24Z,42.805,6.029,13.3017,4.60105,2470.156,2022-1-28T02:57:56Z
2022-01-28T00:59:27Z,42.805,6.029,13.3010,4.60049,2470.147,2022-1-28T03:00:59Z
2022-01-28T01:02:30Z,42.805,6.029,13.3026,4.60077,2470.147,2022-1-28T03:04:02Z
2022-01-28T01:05:33Z,42.805,6.029,13.3026,4.60148,2470.119,2022-1-28T03:07:05Z
2022-01-28T01:08:37Z,42.805,6.029,13.3028,4.60100,2470.124,2022-1-28T03:10:09Z
2022-01-28T01:11:40Z,42.805,6.029,13.3042,4.60105,2470.147,2022-1-28T03:13:12Z
2022-01-28T01:14:43Z,42.805,6.029,13.3054,4.60069,2470.171,2022-1-28T03:16:15Z
2022-01-28T01:17:46Z,42.805,6.029,13.3021,4.60073,2470.11,2022-1-28T03:19:18Z
2022-01-28T01:20:49Z,42.805,6.029,13.3009,4.60116,2470.133,2022-1-28T03:22:21Z
2022-01-28T01:23:52Z,42.805,6.029,13.3015,4.60157,2470.11,2022-1-28T03:25:24Z
2022-01-28T01:26:55Z,42.805,6.029,13.3006,4.60117,2470.133,2022-1-28T03:28:27Z
2022-01-28T01:29:58Z,42.805,6.029,13.3026,4.60065,2470.133,2022-1-28T03:31:30Z
2022-01-28T01:33:02Z,42.805,6.029,13.3032,4.60067,2470.171,2022-1-28T03:34:34Z
2022-01-28T01:36:05Z,42.805,6.029,13.3040,4.60114,2470.156,2022-1-28T03:37:37Z
2022-01-28T01:39:08Z,42.805,6.029,13.3032,4.60138,2470.18,2022-1-28T03:40:40Z
2022-01-28T01:42:11Z,42.805,6.029,13.3045,4.60092,2470.18,2022-1-28T03:43:43Z
2022-01-28T01:45:14Z,42.805,6.029,13.3062,4.60067,2470.147,2022-1-28T03:46:46Z
2022-01-28T01:48:17Z,42.805,6.029,13.3045,4.60072,2470.18,2022-1-28T03:49:49Z
2022-01-28T01:51:20Z,42.805,6.029,13.3035,4.60064,2470.171,2022-1-28T03:52:52Z
2022-01-28T01:54:23Z,42.805,6.029,13.3050,4.60067,2470.156,2022-1-28T03:55:55Z
2022-01-28T01:57:27Z,42.805,6.029,13.3069,4.60087,2470.171,2022-1-28T03:58:59Z
2022-01-28T02:00:30Z,42.805,6.029,13.3069,4.60052,2470.171,2022-1-28T04:02:02Z
2022-01-28T02:03:33Z,42.805,6.029,13.3067,4.60065,2470.171,2022-1-28T04:05:05Z
2022-01-28T02:06:36Z,42.805,6.029,13.3058,4.60065,2470.18,2022-1-28T04:08:08Z
2022-01-28T02:09:39Z,42.805,6.029,13.3053,4.60063,2470.171,2022-1-28T04:11:11Z
2022-01-28T02:12:42Z,42.805,6.029,13.3061,4.60069,2470.194,2022-1-28T04:14:14Z
2022-01-28T02:15:45Z,42.805,6.029,13.3050,4.60064,2470.171,2022-1-28T04:17:17Z
2022-01-28T02:18:48Z,42.805,6.029,13.3049,4.60069,2470.217,2022-1-28T04:20:20Z
2022-01-28T02:21:51Z,42.805,6.029,13.3030,4.60058,2470.194,2022-1-28T04:23:24Z
2022-01-28T02:24:55Z,42.805,6.029,13.3048,4.60062,2470.18,2022-1-28T04:26:27Z
2022-01-28T02:27:58Z,42.805,6.029,13.3061,4.60046,2470.217,2022-1-28T04:29:30Z
2022-01-28T02:31:01Z,42.805,6.029,13.3051,4.60052,2470.18,2022-1-28T04:32:33Z
2022-01-28T02:34:04Z,42.805,6.029,13.3050,4.60062,2470.24,2022-1-28T04:35:36Z
2022-01-28T02:37:07Z,42.805,6.029,13.3073,4.60069,2470.203,2022-1-28T04:38:39Z
2022-01-28T02:40:10Z,42.805,6.029,13.3075,4.60074,2470.203,2022-1-28T04:41:42Z
2022-01-28T02:43:13Z,42.805,6.029,13.3047,4.60044,2470.217,2022-1-28T04:44:45Z
2022-01-28T02:46:16Z,42.805,6.029,13.3031,4.60037,2470.18,2022-1-28T04:47:49Z
2022-01-28T02:49:20Z,42.805,6.029,13.3012,4.60049,2470.24,2022-1-28T04:50:52Z
2022-01-28T02:52:23Z,42.805,6.029,13.3013,4.60099,2470.217,2022-1-28T04:53:55Z
2022-01-28T02:55:26Z,42.805,6.029,13.3030,4.60104,2470.203,2022-1-28T04:56:58Z
2022-01-28T02:58:29Z,42.805,6.029,13.3036,4.60062,2470.203,2022-1-28T05:00:01Z
2022-01-28T03:01:32Z,42.805,6.029,13.3045,4.60059,2470.203,2022-1-28T05:03:04Z
2022-01-28T03:04:35Z,42.805,6.029,13.3042,4.60056,2470.24,2022-1-28T05:06:07Z
2022-01-28T03:07:38Z,42.805,6.029,13.3048,4.60064,2470.227,2022-1-28T05:09:10Z
2022-01-28T03:10:41Z,42.805,6.029,13.3063,4.60062,2470.227,2022-1-28T05:12:13Z
2022-01-28T03:13:45Z,42.805,6.029,13.3051,4.60040,2470.227,2022-1-28T05:15:17Z
2022-01-28T03:16:48Z,42.805,6.029,13.3026,4.60053,2470.264,2022-1-28T05:18:20Z
2022-01-28T03:19:51Z,42.805,6.029,13.3034,4.60038,2470.24,2022-1-28T05:21:23Z
2022-01-28T03:22:54Z,42.805,6.029,13.3030,4.60037,2470.264,2022-1-28T05:24:26Z
2022-01-28T03:25:57Z,42.805,6.029,13.3021,4.60039,2470.25,2022-1-28T05:27:29Z
2022-01-28T03:29:00Z,42.805,6.029,13.3030,4.60046,2470.203,2022-1-28T05:30:32Z
2022-01-28T03:32:03Z,42.805,6.029,13.3039,4.60046,2470.203,2022-1-28T05:33:35Z
2022-01-28T03:35:06Z,42.805,6.029,13.3061,4.60053,2470.203,2022-1-28T05:36:38Z
2022-01-28T03:38:10Z,42.805,6.029,13.3059,4.60053,2470.25,2022-1-28T05:39:42Z
2022-01-28T03:41:13Z,42.805,6.029,13.3065,4.60075,2470.217,2022-1-28T05:42:45Z
2022-01-28T03:44:16Z,42.805,6.029,13.3054,4.60079,2470.24,2022-1-28T05:45:48Z
2022-01-28T03:47:19Z,42.805,6.029,13.3039,4.60094,2470.273,2022-1-28T05:48:51Z
2022-01-28T03:50:22Z,42.805,6.029,13.3009,4.60071,2470.25,2022-1-28T05:51:54Z
2022-01-28T03:53:25Z,42.805,6.029,13.2998,4.60155,2470.25,2022-1-28T05:54:57Z
2022-01-28T03:56:28Z,42.805,6.029,13.3000,4.60137,2470.25,2022-1-28T05:58:00Z
2022-01-28T03:59:31Z,42.805,6.029,13.3000,4.60100,2470.227,2022-1-28T06:01:03Z
2022-01-28T04:02:35Z,42.805,6.029,13.2997,4.60062,2470.264,2022-1-28T06:04:07Z
2022-01-28T04:05:38Z,42.805,6.029,13.2998,4.60064,2470.287,2022-1-28T06:07:10Z
2022-01-28T04:08:41Z,42.805,6.029,13.2998,4.60055,2470.24,2022-1-28T06:10:13Z
2022-01-28T04:11:44Z,42.805,6.029,13.2998,4.60063,2470.264,2022-1-28T06:13:16Z
2022-01-28T04:14:47Z,42.805,6.029,13.2998,4.60052,2470.264,2022-1-28T06:16:19Z
2022-01-28T04:17:50Z,42.805,6.029,13.2998,4.60050,2470.25,2022-1-28T06:19:22Z
2022-01-28T04:20:53Z,42.805,6.029,13.2996,4.60043,2470.24,2022-1-28T06:22:25Z
2022-01-28T04:23:56Z,42.805,6.029,13.2997,4.60049,2470.273,2022-1-28T06:25:28Z
2022-01-28T04:27:00Z,42.805,6.029,13.2996,4.60041,2470.264,2022-1-28T06:28:32Z
2022-01-28T04:30:03Z,42.805,6.029,13.2995,4.60043,2470.227,2022-1-28T06:31:35Z
2022-01-28T04:33:06Z,42.805,6.029,13.2998,4.60039,2470.24,2022-1-28T06:34:38Z
2022-01-28T04:36:09Z,42.805,6.029,13.2999,4.60046,2470.24,2022-1-28T06:37:41Z
2022-01-28T04:39:12Z,42.805,6.029,13.2997,4.60044,2470.24,2022-1-28T06:40:44Z
2022-01-28T04:42:15Z,42.805,6.029,13.2997,4.60039,2470.287,2022-1-28T06:43:47Z
2022-01-28T04:45:18Z,42.805,6.029,13.2996,4.60055,2470.273,2022-1-28T06:46:50Z
2022-01-28T04:48:21Z,42.805,6.029,13.2996,4.60050,2470.227,2022-1-28T06:49:53Z
2022-01-28T04:51:24Z,42.805,6.029,13.2996,4.60037,2470.24,2022-1-28T06:52:57Z
2022-01-28T04:54:28Z,42.805,6.029,13.2998,4.60040,2470.25,2022-1-28T06:56:00Z
2022-01-28T04:57:31Z,42.805,6.029,13.2998,4.60044,2470.25,2022-1-28T06:59:03Z
2022-01-28T05:00:34Z,42.805,6.029,13.3000,4.60046,2470.264,2022-1-28T07:02:06Z
2022-01-28T05:03:37Z,42.805,6.029,13.2993,4.60041,2470.24,2022-1-28T07:05:09Z
2022-01-28T05:06:40Z,42.805,6.029,13.2995,4.60036,2470.217,2022-1-28T07:08:12Z
2022-01-28T05:09:43Z,42.805,6.029,13.2998,4.60039,2470.264,2022-1-28T07:11:15Z
2022-01-28T05:12:46Z,42.805,6.029,13.2999,4.60036,2470.213,2022-1-28T07:14:18Z
2022-01-28T05:15:49Z,42.805,6.029,13.2998,4.60035,2470.24,2022-1-28T07:17:22Z
2022-01-28T05:18:53Z,42.805,6.029,13.2999,4.60033,2470.203,2022-1-28T07:20:25Z
2022-01-28T05:21:56Z,42.805,6.029,13.2999,4.60036,2470.227,2022-1-28T07:23:28Z
2022-01-28T05:24:59Z,42.805,6.029,13.2996,4.60036,2470.203,2022-1-28T07:26:31Z
2022-01-28T05:28:02Z,42.805,6.029,13.2997,4.60036,2470.24,2022-1-28T07:29:34Z
2022-01-28T05:31:05Z,42.805,6.029,13.2999,4.60036,2470.227,2022-1-28T07:32:37Z
2022-01-28T05:34:08Z,42.805,6.029,13.2998,4.60029,2470.287,2022-1-28T07:35:40Z
2022-01-28T05:37:11Z,42.805,6.029,13.2995,4.60035,2470.24,2022-1-28T07:38:43Z
2022-01-28T05:40:14Z,42.805,6.029,13.2996,4.60033,2470.203,2022-1-28T07:41:46Z
2022-01-28T05:43:18Z,42.805,6.029,13.2996,4.60033,2470.227,2022-1-28T07:44:50Z
2022-01-28T05:46:21Z,42.805,6.029,13.2995,4.60032,2470.203,2022-1-28T07:47:53Z
2022-01-28T05:49:24Z,42.805,6.029,13.2997,4.60041,2470.227,2022-1-28T07:50:56Z
2022-01-28T05:52:27Z,42.805,6.029,13.2998,4.60033,2470.203,2022-1-28T07:53:59Z
2022-01-28T05:55:30Z,42.805,6.029,13.2996,4.60036,2470.227,2022-1-28T07:57:02Z
2022-01-28T05:58:33Z,42.805,6.029,13.2997,4.60041,2470.203,2022-1-28T08:00:05Z
2022-01-28T06:01:36Z,42.805,6.029,13.2993,4.60037,2470.203,2022-1-28T08:03:08Z
2022-01-28T06:04:39Z,42.805,6.029,13.2997,4.60035,2470.227,2022-1-28T08:06:11Z
2022-01-28T06:07:43Z,42.805,6.029,13.2996,4.60033,2470.227,2022-1-28T08:09:15Z
2022-01-28T06:10:46Z,42.805,6.029,13.2998,4.60031,2470.227,2022-1-28T08:12:18Z
2022-01-28T06:13:49Z,42.805,6.029,13.2996,4.60033,2470.24,2022-1-28T08:15:21Z
2022-01-28T06:16:52Z,42.805,6.029,13.2998,4.60032,2470.227,2022-1-28T08:18:24Z
2022-01-28T06:19:55Z,42.805,6.029,13.2996,4.60038,2470.264,2022-1-28T08:21:27Z
2022-01-28T06:22:58Z,42.805,6.029,13.2997,4.60036,2470.25,2022-1-28T08:24:30Z
2022-01-28T06:26:01Z,42.805,6.029,13.2998,4.60034,2470.25,2022-1-28T08:27:33Z
2022-01-28T06:29:04Z,42.805,6.029,13.2998,4.60031,2470.227,2022-1-28T08:30:36Z
2022-01-28T06:32:08Z,42.805,6.029,13.2998,4.60031,2470.227,2022-1-28T08:33:40Z
2022-01-28T06:35:11Z,42.805,6.029,13.2998,4.60033,2470.25,2022-1-28T08:36:43Z
2022-01-28T06:38:14Z,42.805,6.029,13.2996,4.60031,2470.227,2022-1-28T08:39:46Z
2022-01-28T06:41:17Z,42.805,6.029,13.2996,4.60029,2470.25,2022-1-28T08:42:49Z
2022-01-28T06:44:20Z,42.805,6.029,13.2998,4.60029,2470.25,2022-1-28T08:45:52Z
2022-01-28T06:47:23Z,42.805,6.029,13.2997,4.60031,2470.203,2022-1-28T08:48:55Z
2022-01-28T06:50:26Z,42.805,6.029,13.3000,4.60033,2470.227,2022-1-28T08:51:58Z
2022-01-28T06:53:29Z,42.805,6.029,13.2995,4.60027,2470.24,2022-1-28T08:55:02Z
2022-01-28T06:56:33Z,42.805,6.029,13.2993,4.60033,2470.25,2022-1-28T08:58:05Z
2022-01-28T06:59:36Z,42.805,6.029,13.2996,4.60030,2470.227,2022-1-28T09:01:08Z
2022-01-28T07:02:39Z,42.805,6.029,13.2998,4.60032,2470.24,2022-1-28T09:04:11Z
2022-01-28T07:05:42Z,42.805,6.029,13.2996,4.60037,2470.227,2022-1-28T09:07:14Z
2022-01-28T07:08:45Z,42.805,6.029,13.2998,4.60037,2470.25,2022-1-28T09:10:17Z
2022-01-28T07:11:48Z,42.805,6.029,13.2996,4.60036,2470.203,2022-1-28T09:13:20Z
2022-01-28T07:14:51Z,42.805,6.029,13.2998,4.60031,2470.25,2022-1-28T09:16:23Z
2022-01-28T07:17:54Z,42.805,6.029,13.2996,4.60036,2470.25,2022-1-28T09:19:26Z
2022-01-28T07:20:58Z,42.805,6.029,13.2997,4.60036,2470.24,2022-1-28T09:22:30Z
2022-01-28T07:24:01Z,42.805,6.029,13.2998,4.60036,2470.227,2022-1-28T09:25:33Z
2022-01-28T07:27:04Z,42.805,6.029,13.2998,4.60036,2470.25,2022-1-28T09:28:36Z
2022-01-28T07:30:07Z,42.805,6.029,13.2998,4.60036,2470.203,2022-1-28T09:31:39Z
2022-01-28T07:33:10Z,42.805,6.029,13.2998,4.60035,2470.203,2022-1-28T09:34:42Z
2022-01-28T07:36:13Z,42.805,6.029,13.3000,4.60032,2470.24,2022-1-28T09:37:45Z
2022-01-28T07:39:16Z,42.805,6.029,13.2997,4.60036,2470.264,2022-1-28T09:40:48Z
2022-01-28T07:42:19Z,42.805,6.029,13.2996,4.60037,2470.264,2022-1-28T09:43:51Z
2022-01-28T07:45:23Z,42.805,6.029,13.2993,4.60033,2470.25,2022-1-28T09:46:55Z
2022-01-28T07:48:26Z,42.805,6.029,13.2997,4.60032,2470.25,2022-1-28T09:49:58Z
2022-01-28T07:51:29Z,42.805,6.029,13.2998,4.60033,2470.24,2022-1-28T09:53:01Z
2022-01-28T07:54:32Z,42.805,6.029,13.2993,4.60030,2470.227,2022-1-28T09:56:04Z
2022-01-28T07:57:35Z,42.805,6.029,13.2995,4.60033,2470.273,2022-1-28T09:59:07Z
2022-01-28T08:00:38Z,42.805,6.029,13.2996,4.60028,2470.24,2022-1-28T10:02:10Z
2022-01-28T08:03:41Z,42.805,6.029,13.2996,4.60026,2470.25,2022-1-28T10:05:13Z
2022-01-28T08:06:44Z,42.805,6.029,13.2996,4.60025,2470.25,2022-1-28T10:08:16Z
2022-01-28T08:09:48Z,42.805,6.029,13.2998,4.60026,2470.227,2022-1-28T10:11:20Z
2022-01-28T08:12:51Z,42.805,6.029,13.2996,4.60033,2470.217,2022-1-28T10:14:23Z
2022-01-28T08:15:54Z,42.805,6.029,13.2998,4.60026,2470.227,2022-1-28T10:17:26Z
2022-01-28T08:18:57Z,42.805,6.029,13.2999,4.60029,2470.227,2022-1-28T10:20:29Z
2022-01-28T08:22:00Z,42.805,6.029,13.2998,4.60026,2470.203,2022-1-28T10:23:32Z
2022-01-28T08:25:03Z,42.805,6.029,13.2998,4.60024,2470.227,2022-1-28T10:26:35Z
2022-01-28T08:28:06Z,42.805,6.029,13.2994,4.60027,2470.194,2022-1-28T10:29:38Z
2022-01-28T08:31:09Z,42.805,6.029,13.2996,4.60024,2470.203,2022-1-28T10:32:42Z
2022-01-28T08:34:13Z,42.805,6.029,13.2996,4.60027,2470.203,2022-1-28T10:35:45Z
2022-01-28T08:37:16Z,42.805,6.029,13.2999,4.60024,2470.203,2022-1-28T10:38:48Z
2022-01-28T08:40:19Z,42.805,6.029,13.2992,4.60021,2470.217,2022-1-28T10:41:51Z
2022-01-28T08:43:22Z,42.805,6.029,13.2994,4.60024,2470.203,2022-1-28T10:44:54Z
2022-01-28T08:46:25Z,42.805,6.029,13.2998,4.60021,2470.227,2022-1-28T10:47:57Z
2022-01-28T08:49:28Z,42.805,6.029,13.2994,4.60022,2470.203,2022-1-28T10:51:00Z
2022-01-28T08:52:31Z,42.805,6.029,13.2995,4.60020,2470.171,2022-1-28T10:54:03Z
2022-01-28T08:55:34Z,42.805,6.029,13.2995,4.60026,2470.203,2022-1-28T10:57:07Z
2022-01-28T08:58:38Z,42.805,6.029,13.2993,4.60022,2470.18,2022-1-28T11:00:10Z
2022-01-28T09:01:41Z,42.805,6.029,13.2993,4.60021,2470.18,2022-1-28T11:03:13Z
2022-01-28T09:04:44Z,42.805,6.029,13.2998,4.60023,2470.194,2022-1-28T11:06:16Z
2022-01-28T09:07:47Z,42.805,6.029,13.2996,4.60025,2470.194,2022-1-28T11:09:19Z
2022-01-28T09:10:50Z,42.805,6.029,13.2994,4.60021,2470.203,2022-1-28T11:12:22Z
2022-01-28T09:13:53Z,42.805,6.029,13.2996,4.60021,2470.18,2022-1-28T11:15:25Z
2022-01-28T09:16:56Z,42.805,6.029,13.2994,4.60026,2470.18,2022-1-28T11:18:28Z
2022-01-28T09:19:59Z,42.805,6.029,13.2995,4.60028,2470.171,2022-1-28T11:21:32Z
2022-01-28T09:23:03Z,42.805,6.029,13.2999,4.60026,2470.18,2022-1-28T11:24:35Z
2022-01-28T09:26:06Z,42.805,6.029,13.2993,4.60022,2470.18,2022-1-28T11:27:38Z
2022-01-28T09:29:09Z,42.805,6.029,13.2995,4.60023,2470.194,2022-1-28T11:30:41Z
2022-01-28T09:32:12Z,42.805,6.029,13.2992,4.60026,2470.194,2022-1-28T11:33:44Z
2022-01-28T09:35:15Z,42.805,6.029,13.2996,4.60022,2470.156,2022-1-28T11:36:47Z
2022-01-28T09:38:18Z,42.805,6.029,13.2997,4.60026,2470.18,2022-1-28T11:39:50Z
2022-01-28T09:41:21Z,42.805,6.029,13.2998,4.60025,2470.156,2022-1-28T11:42:53Z
2022-01-28T09:44:25Z,42.805,6.029,13.2996,4.60022,2470.171,2022-1-28T11:45:57Z
2022-01-28T09:47:28Z,42.805,6.029,13.2997,4.60024,2470.156,2022-1-28T11:49:00Z
2022-01-28T09:50:31Z,42.805,6.029,13.2996,4.60024,2470.18,2022-1-28T11:52:03Z
2022-01-28T09:53:34Z,42.805,6.029,13.2997,4.60023,2470.156,2022-1-28T11:55:06Z
2022-01-28T09:56:37Z,42.805,6.029,13.2994,4.60021,2470.171,2022-1-28T11:58:09Z
2022-01-28T09:59:40Z,42.805,6.029,13.2999,4.60024,2470.18,2022-1-28T12:01:12Z
2022-01-28T10:02:43Z,42.805,6.029,13.2997,4.60030,2470.18,2022-1-28T12:04:15Z
2022-01-28T10:05:46Z,42.805,6.029,13.2992,4.60026,2470.133,2022-1-28T12:07:18Z
2022-01-28T10:08:50Z,42.805,6.029,13.2996,4.60023,2470.147,2022-1-28T12:10:22Z
2022-01-28T10:11:53Z,42.805,6.029,13.2993,4.60025,2470.156,2022-1-28T12:13:25Z
2022-01-28T10:14:56Z,42.805,6.029,13.2996,4.60024,2470.133,2022-1-28T12:16:28Z
2022-01-28T10:17:59Z,42.805,6.029,13.3000,4.60024,2470.156,2022-1-28T12:19:31Z
2022-01-28T10:21:02Z,42.805,6.029,13.2993,4.60024,2470.171,2022-1-28T12:22:34Z
2022-01-28T10:24:05Z,42.805,6.029,13.2996,4.60026,2470.156,2022-1-28T12:25:37Z
2022-01-28T10:27:08Z,42.805,6.029,13.2994,4.60022,2470.147,2022-1-28T12:28:40Z
2022-01-28T10:30:11Z,42.805,6.029,13.2995,4.60024,2470.133,2022-1-28T12:31:43Z
2022-01-28T10:33:15Z,42.805,6.029,13.2996,4.60024,2470.156,2022-1-28T12:34:47Z
2022-01-28T10:36:18Z,42.805,6.029,13.2996,4.60023,2470.133,2022-1-28T12:37:50Z
2022-01-28T10:39:21Z,42.805,6.029,13.2998,4.60024,2470.156,2022-1-28T12:40:53Z
2022-01-28T10:42:24Z,42.805,6.029,13.2996,4.60023,2470.18,2022-1-28T12:43:56Z
2022-01-28T10:45:27Z,42.805,6.029,13.2997,4.60026,2470.133,2022-1-28T12:46:59Z
2022-01-28T10:48:30Z,42.805,6.029,13.2997,4.60025,2470.133,2022-1-28T12:50:02Z
2022-01-28T10:51:33Z,42.805,6.029,13.2994,4.60022,2470.156,2022-1-28T12:53:05Z
2022-01-28T10:54:36Z,42.805,6.029,13.2994,4.60022,2470.11,2022-1-28T12:56:08Z
2022-01-28T10:57:40Z,42.805,6.029,13.2997,4.60020,2470.147,2022-1-28T12:59:12Z
2022-01-28T11:00:43Z,42.805,6.029,13.2996,4.60021,2470.133,2022-1-28T13:02:15Z
2022-01-28T11:03:46Z,42.805,6.029,13.2996,4.60022,2470.156,2022-1-28T13:05:18Z
2022-01-28T11:06:49Z,42.805,6.029,13.2998,4.60023,2470.156,2022-1-28T13:08:21Z
2022-01-28T11:09:52Z,42.805,6.029,13.2996,4.60023,2470.18,2022-1-28T13:11:24Z
2022-01-28T11:12:55Z,42.805,6.029,13.2998,4.60022,2470.156,2022-1-28T13:14:27Z
2022-01-28T11:15:58Z,42.805,6.029,13.2995,4.60021,2470.194,2022-1-28T13:17:30Z
2022-01-28T11:19:01Z,42.805,6.029,13.2997,4.60021,2470.133,2022-1-28T13:20:34Z
2022-01-28T11:22:05Z,42.805,6.029,13.2995,4.60024,2470.156,2022-1-28T13:23:37Z
2022-01-28T11:25:08Z,42.805,6.029,13.2996,4.60024,2470.18,2022-1-28T13:26:40Z
2022-01-28T11:28:11Z,42.805,6.029,13.2994,4.60023,2470.194,2022-1-28T13:29:43Z
2022-01-28T11:31:14Z,42.805,6.029,13.2998,4.60025,2470.156,2022-1-28T13:32:46Z
2022-01-28T11:34:17Z,42.805,6.029,13.2996,4.60032,2470.124,2022-1-28T13:35:49Z
2022-01-28T11:37:20Z,42.805,6.029,13.2997,4.60041,2470.156,2022-1-28T13:38:52Z
2022-01-28T11:40:23Z,42.805,6.029,13.2996,4.60025,2470.133,2022-1-28T13:41:55Z
2022-01-28T11:43:26Z,42.805,6.029,13.2996,4.60024,2470.156,2022-1-28T13:44:59Z
2022-01-28T11:46:30Z,42.805,6.029,13.2998,4.60023,2470.18,2022-1-28T13:48:02Z
2022-01-28T11:49:33Z,42.805,6.029,13.2996,4.60025,2470.156,2022-1-28T13:51:05Z
2022-01-28T11:52:36Z,42.805,6.029,13.2998,4.60024,2470.156,2022-1-28T13:54:08Z
2022-01-28T11:55:39Z,42.805,6.029,13.2997,4.60024,2470.156,2022-1-28T13:57:11Z
2022-01-28T11:58:42Z,42.805,6.029,13.2996,4.60024,2470.133,2022-1-28T14:00:14Z
2022-01-28T12:01:45Z,42.805,6.029,13.2995,4.60025,2470.217,2022-1-28T14:03:17Z
2022-01-28T12:04:48Z,42.805,6.029,13.2999,4.60026,2470.133,2022-1-28T14:06:20Z
2022-01-28T12:07:51Z,42.805,6.029,13.2998,4.60023,2470.217,2022-1-28T14:09:24Z
2022-01-28T12:10:55Z,42.805,6.029,13.3000,4.60023,2470.171,2022-1-28T14:12:27Z
2022-01-28T12:13:58Z,42.805,6.029,13.2999,4.60024,2470.171,2022-1-28T14:15:30Z
2022-01-28T12:17:01Z,42.805,6.029,13.2996,4.60025,2470.156,2022-1-28T14:18:33Z
2022-01-28T12:20:04Z,42.805,6.029,13.2999,4.60024,2470.156,2022-1-28T14:21:36Z
2022-01-28T12:23:07Z,42.805,6.029,13.2996,4.60024,2470.133,2022-1-28T14:24:39Z
2022-01-28T12:26:10Z,42.805,6.029,13.2999,4.60029,2470.156,2022-1-28T14:27:42Z
2022-01-28T12:29:13Z,42.805,6.029,13.2994,4.60024,2470.18,2022-1-28T14:30:45Z
2022-01-28T12:32:16Z,42.805,6.029,13.2998,4.60025,2470.147,2022-1-28T14:33:49Z
2022-01-28T12:35:20Z,42.805,6.029,13.2999,4.60024,2470.171,2022-1-28T14:36:52Z
2022-01-28T12:38:23Z,42.805,6.029,13.2996,4.60024,2470.147,2022-1-28T14:39:55Z
2022-01-28T12:41:26Z,42.805,6.029,13.2998,4.60025,2470.194,2022-1-28T14:42:58Z
2022-01-28T12:44:29Z,42.805,6.029,13.2998,4.60029,2470.18,2022-1-28T14:46:01Z
2022-01-28T12:47:32Z,42.805,6.029,13.2996,4.60024,2470.156,2022-1-28T14:49:04Z
2022-01-28T12:50:35Z,42.805,6.029,13.2999,4.60024,2470.171,2022-1-28T14:52:07Z
2022-01-28T12:53:38Z,42.805,6.029,13.2999,4.60024,2470.18,2022-1-28T14:55:10Z
2022-01-28T12:56:41Z,42.805,6.029,13.2995,4.60025,2470.18,2022-1-28T14:58:14Z
2022-01-28T12:59:45Z,42.805,6.029,13.2995,4.60026,2470.156,2022-1-28T15:01:17Z
2022-01-28T13:02:48Z,42.805,6.029,13.2997,4.60031,2470.18,2022-1-28T15:04:20Z
2022-01-28T13:05:51Z,42.805,6.029,13.2998,4.60024,2470.18,2022-1-28T15:07:23Z
2022-01-28T13:08:54Z,42.805,6.029,13.3000,4.60031,2470.156,2022-1-28T15:10:26Z
2022-01-28T13:11:57Z,42.805,6.029,13.2995,4.60025,2470.133,2022-1-28T15:13:29Z
2022-01-28T13:15:00Z,42.805,6.029,13.2999,4.60024,2470.156,2022-1-28T15:16:32Z
2022-01-28T13:18:03Z,42.805,6.029,13.2998,4.60025,2470.18,2022-1-28T15:19:35Z
2022-01-28T13:21:06Z,42.805,6.029,13.3000,4.60024,2470.171,2022-1-28T15:22:39Z
2022-01-28T13:24:10Z,42.805,6.029,13.2996,4.60026,2470.156,2022-1-28T15:25:42Z
2022-01-28T13:27:13Z,42.805,6.029,13.2999,4.60026,2470.171,2022-1-28T15:28:45Z
2022-01-28T13:30:16Z,42.805,6.029,13.2999,4.60025,2470.194,2022-1-28T15:31:48Z
2022-01-28T13:33:19Z,42.805,6.029,13.3002,4.60026,2470.133,2022-1-28T15:34:51Z
2022-01-28T13:36:22Z,42.805,6.029,13.2996,4.60026,2470.156,2022-1-28T15:37:54Z
2022-01-28T13:39:25Z,42.805,6.029,13.3000,4.60026,2470.171,2022-1-28T15:40:57Z
2022-01-28T13:42:28Z,42.805,6.029,13.2997,4.60029,2470.156,2022-1-28T15:44:00Z
2022-01-28T13:45:32Z,42.805,6.029,13.3000,4.60028,2470.194,2022-1-28T15:47:04Z
2022-01-28T13:48:35Z,42.805,6.029,13.2998,4.60025,2470.18,2022-1-28T15:50:07Z
2022-01-28T13:51:38Z,42.805,6.029,13.2998,4.60026,2470.156,2022-1-28T15:53:10Z
2022-01-28T13:54:41Z,42.805,6.029,13.3000,4.60026,2470.156,2022-1-28T15:56:13Z
2022-01-28T13:57:44Z,42.805,6.029,13.2996,4.60026,2470.194,2022-1-28T15:59:16Z
2022-01-28T14:00:47Z,42.805,6.029,13.3001,4.60031,2470.133,2022-1-28T16:02:19Z
2022-01-28T14:03:50Z,42.805,6.029,13.3001,4.60027,2470.171,2022-1-28T16:05:22Z
2022-01-28T14:06:53Z,42.805,6.029,13.2996,4.60027,2470.18,2022-1-28T16:08:25Z
2022-01-28T14:09:57Z,42.805,6.029,13.3001,4.60027,2470.156,2022-1-28T16:11:29Z
2022-01-28T14:13:00Z,42.805,6.029,13.2998,4.60026,2470.156,2022-1-28T16:14:32Z
2022-01-28T14:16:03Z,42.805,6.029,13.3003,4.60027,2470.194,2022-1-28T16:17:35Z
2022-01-28T14:19:06Z,42.805,6.029,13.3000,4.60028,2470.194,2022-1-28T16:20:38Z
2022-01-28T14:22:09Z,42.805,6.029,13.3000,4.60029,2470.18,2022-1-28T16:23:41Z
2022-01-28T14:25:12Z,42.805,6.029,13.3001,4.60031,2470.18,2022-1-28T16:26:44Z
2022-01-28T14:28:15Z,42.805,6.029,13.3000,4.60027,2470.147,2022-1-28T16:29:47Z
2022-01-28T14:31:18Z,42.805,6.029,13.3001,4.60031,2470.203,2022-1-28T16:32:51Z
2022-01-28T14:34:22Z,42.805,6.029,13.3000,4.60028,2470.194,2022-1-28T16:35:54Z
2022-01-28T14:37:25Z,42.805,6.029,13.2998,4.60031,2470.18,2022-1-28T16:38:57Z
2022-01-28T14:40:28Z,42.805,6.029,13.3002,4.60028,2470.24,2022-1-28T16:42:00Z
2022-01-28T14:43:31Z,42.805,6.029,13.2998,4.60025,2470.227,2022-1-28T16:45:03Z
2022-01-28T14:46:34Z,42.805,6.029,13.2996,4.60027,2470.227,2022-1-28T16:48:06Z
2022-01-28T14:49:37Z,42.805,6.029,13.3000,4.60029,2470.227,2022-1-28T16:51:09Z
2022-01-28T14:52:40Z,42.805,6.029,13.3019,4.60077,2470.217,2022-1-28T16:54:12Z
2022-01-28T14:55:43Z,42.805,6.029,13.3010,4.60033,2470.194,2022-1-28T16:57:16Z
2022-01-28T14:58:47Z,42.805,6.029,13.3025,4.60044,2470.203,2022-1-28T17:00:19Z
2022-01-28T15:01:50Z,42.805,6.029,13.3021,4.60051,2470.24,2022-1-28T17:03:22Z
2022-01-28T15:04:53Z,42.805,6.029,13.3029,4.60088,2470.203,2022-1-28T17:06:25Z
2022-01-28T15:07:56Z,42.805,6.029,13.3021,4.60099,2470.25,2022-1-28T17:09:28Z
2022-01-28T15:10:59Z,42.805,6.029,13.3018,4.60099,2470.203,2022-1-28T17:12:31Z
2022-01-28T15:14:02Z,42.805,6.029,13.3032,4.60084,2470.203,2022-1-28T17:15:34Z